TimeMDT,TemperatureF,Dew PointF,Humidity,Sea Level PressureIn,VisibilityMPH,Wind Direction,Wind SpeedMPH,Gust SpeedMPH,PrecipitationIn,Events,Conditions,WindDirDegrees,DateUTC
12:15 AM,39.2,21.2,49,30.18,10.0,NW,8.1,-,N/A,,Unknown,310,2014-05-02 06:15:00
12:35 AM,39.2,21.2,49,30.18,10.0,West,8.1,-,N/A,,Unknown,280,2014-05-02 06:35:00
12:55 AM,39.2,21.2,49,30.18,10.0,WNW,6.9,-,N/A,,Unknown,300,2014-05-02 06:55:00
1:15 AM,37.4,19.4,48,30.18,10.0,WSW,5.8,-,N/A,,Unknown,250,2014-05-02 07:15:00
1:35 AM,39.2,21.2,49,30.18,10.0,WSW,6.9,-,N/A,,Unknown,250,2014-05-02 07:35:00
1:55 AM,39.2,21.2,49,30.17,10.0,West,6.9,-,N/A,,Unknown,270,2014-05-02 07:55:00
2:15 AM,39.2,21.2,49,30.17,10.0,West,9.2,-,N/A,,Unknown,260,2014-05-02 08:15:00
2:35 AM,41.0,21.2,45,30.16,10.0,West,10.4,-,N/A,,Unknown,270,2014-05-02 08:35:00
2:55 AM,39.2,21.2,49,30.16,10.0,West,10.4,-,N/A,,Unknown,280,2014-05-02 08:55:00
3:15 AM,39.2,23.0,52,30.16,10.0,West,8.1,-,N/A,,Unknown,280,2014-05-02 09:15:00
3:35 AM,39.2,21.2,49,30.16,10.0,West,10.4,-,N/A,,Unknown,270,2014-05-02 09:35:00
3:55 AM,39.2,21.2,49,30.16,10.0,West,11.5,-,N/A,,Unknown,280,2014-05-02 09:55:00
4:15 AM,39.2,23.0,52,30.16,10.0,WNW,11.5,-,N/A,,Unknown,290,2014-05-02 10:15:00
4:35 AM,42.8,24.8,49,30.16,10.0,WNW,12.7,-,N/A,,Unknown,300,2014-05-02 10:35:00
4:55 AM,39.2,23.0,52,30.16,10.0,WNW,11.5,-,N/A,,Unknown,290,2014-05-02 10:55:00
5:15 AM,39.2,23.0,52,30.16,10.0,WNW,10.4,-,N/A,,Unknown,300,2014-05-02 11:15:00
5:35 AM,39.2,23.0,52,30.16,10.0,WNW,11.5,-,N/A,,Unknown,300,2014-05-02 11:35:00
5:55 AM,39.2,24.8,56,30.16,10.0,WNW,10.4,-,N/A,,Unknown,300,2014-05-02 11:55:00
6:15 AM,39.2,24.8,56,30.16,10.0,WNW,9.2,-,N/A,,Unknown,300,2014-05-02 12:15:00
6:35 AM,41.0,24.8,53,30.16,10.0,NW,10.4,-,N/A,,Unknown,310,2014-05-02 12:35:00
6:55 AM,44.6,24.8,46,30.16,10.0,NW,10.4,-,N/A,,Unknown,310,2014-05-02 12:55:00
7:15 AM,46.4,26.6,46,30.16,10.0,NW,11.5,-,N/A,,Unknown,320,2014-05-02 13:15:00
7:35 AM,48.2,26.6,43,30.17,10.0,NW,10.4,-,N/A,,Unknown,310,2014-05-02 13:35:00
7:55 AM,51.8,28.4,41,30.17,10.0,NW,10.4,-,N/A,,Unknown,310,2014-05-02 13:55:00
8:15 AM,53.6,28.4,38,30.17,10.0,WNW,13.8,-,N/A,,Unknown,300,2014-05-02 14:15:00
8:35 AM,55.4,28.4,36,30.17,10.0,WNW,15.0,-,N/A,,Unknown,290,2014-05-02 14:35:00
8:55 AM,57.2,28.4,33,30.17,10.0,WNW,12.7,-,N/A,,Unknown,290,2014-05-02 14:55:00
9:15 AM,60.8,28.4,29,30.17,10.0,West,13.8,-,N/A,,Unknown,280,2014-05-02 15:15:00
9:35 AM,62.6,26.6,26,30.17,10.0,WNW,12.7,-,N/A,,Unknown,300,2014-05-02 15:35:00
9:55 AM,62.6,23.0,22,30.17,10.0,West,13.8,19.6,N/A,,Unknown,270,2014-05-02 15:55:00
10:15 AM,64.4,23.0,21,30.17,10.0,West,9.2,16.1,N/A,,Unknown,270,2014-05-02 16:15:00
10:35 AM,64.4,23.0,21,30.17,10.0,NW,9.2,19.6,N/A,,Unknown,310,2014-05-02 16:35:00
10:55 AM,64.4,21.2,19,30.17,10.0,NW,15.0,19.6,N/A,,Unknown,310,2014-05-02 16:55:00
11:15 AM,66.2,21.2,18,30.16,10.0,NW,6.9,20.7,N/A,,Unknown,320,2014-05-02 17:15:00
11:35 AM,66.2,21.2,18,30.15,10.0,WNW,10.4,17.3,N/A,,Unknown,300,2014-05-02 17:35:00
11:55 AM,68.0,21.2,17,30.14,10.0,WNW,8.1,18.4,N/A,,Unknown,290,2014-05-02 17:55:00
12:15 PM,68.0,21.2,17,30.14,10.0,NW,3.5,19.6,N/A,,Unknown,310,2014-05-02 18:15:00
12:35 PM,69.8,21.2,16,30.12,10.0,NNW,10.4,-,N/A,,Unknown,340,2014-05-02 18:35:00
12:55 PM,69.8,21.2,16,30.11,10.0,WNW,3.5,-,N/A,,Unknown,300,2014-05-02 18:55:00
1:15 PM,71.6,21.2,15,30.11,10.0,North,12.7,-,N/A,,Unknown,10,2014-05-02 19:15:00
1:35 PM,69.8,19.4,15,30.09,10.0,NW,5.8,-,N/A,,Unknown,310,2014-05-02 19:35:00
1:55 PM,71.6,21.2,15,30.09,10.0,North,11.5,19.6,N/A,,Unknown,350,2014-05-02 19:55:00
2:15 PM,73.4,21.2,14,30.09,10.0,Calm,Calm,-,N/A,,Unknown,0,2014-05-02 20:15:00
2:35 PM,71.6,21.2,15,30.08,10.0,WNW,6.9,17.3,N/A,,Unknown,290,2014-05-02 20:35:00
2:55 PM,73.4,21.2,14,30.08,10.0,NNW,8.1,17.3,N/A,,Unknown,340,2014-05-02 20:55:00
3:15 PM,71.6,19.4,14,30.07,10.0,NNW,5.8,-,N/A,,Unknown,340,2014-05-02 21:15:00
3:35 PM,73.4,21.2,14,30.06,10.0,WSW,4.6,16.1,N/A,,Unknown,240,2014-05-02 21:35:00
3:55 PM,73.4,19.4,13,30.06,10.0,NNW,13.8,18.4,N/A,,Unknown,330,2014-05-02 21:55:00
4:15 PM,73.4,21.2,14,30.05,10.0,NW,8.1,-,N/A,,Unknown,310,2014-05-02 22:15:00
4:35 PM,73.4,21.2,14,30.06,10.0,NW,8.1,-,N/A,,Unknown,320,2014-05-02 22:35:00
4:55 PM,73.4,21.2,14,30.05,10.0,West,4.6,-,N/A,,Unknown,280,2014-05-02 22:55:00
5:15 PM,73.4,21.2,14,30.05,10.0,NW,9.2,-,N/A,,Unknown,310,2014-05-02 23:15:00
5:35 PM,73.4,19.4,13,30.05,10.0,NW,5.8,-,N/A,,Unknown,320,2014-05-02 23:35:00
5:55 PM,73.4,19.4,13,30.05,9.0,North,10.4,17.3,N/A,,Unknown,350,2014-05-02 23:55:00
6:15 PM,73.4,19.4,13,30.05,10.0,NW,5.8,-,N/A,,Unknown,310,2014-05-03 00:15:00
6:35 PM,73.4,19.4,13,30.05,10.0,NW,6.9,-,N/A,,Unknown,320,2014-05-03 00:35:00
6:55 PM,71.6,19.4,14,30.05,10.0,NW,4.6,-,N/A,,Unknown,320,2014-05-03 00:55:00
7:15 PM,71.6,19.4,14,30.05,10.0,Calm,Calm,-,N/A,,Unknown,0,2014-05-03 01:15:00
7:35 PM,66.2,19.4,17,30.05,10.0,Calm,Calm,-,N/A,,Unknown,0,2014-05-03 01:35:00
7:55 PM,64.4,19.4,18,30.05,10.0,Calm,Calm,-,N/A,,Unknown,0,2014-05-03 01:55:00
8:15 PM,64.4,17.6,16,30.06,10.0,Calm,Calm,-,N/A,,Unknown,0,2014-05-03 02:15:00
8:35 PM,62.6,17.6,18,30.07,10.0,South,4.6,-,N/A,,Unknown,190,2014-05-03 02:35:00
8:55 PM,60.8,21.2,22,30.07,10.0,South,5.8,-,N/A,,Unknown,190,2014-05-03 02:55:00
9:15 PM,57.2,19.4,23,30.07,10.0,South,5.8,-,N/A,,Unknown,190,2014-05-03 03:15:00
9:35 PM,55.4,17.6,23,30.08,10.0,SSW,9.2,-,N/A,,Unknown,200,2014-05-03 03:35:00
9:55 PM,55.4,21.2,26,30.08,10.0,South,4.6,-,N/A,,Unknown,190,2014-05-03 03:55:00
10:15 PM,55.4,21.2,26,30.08,10.0,SSW,5.8,-,N/A,,Unknown,200,2014-05-03 04:15:00
10:35 PM,53.6,19.4,26,30.08,10.0,South,5.8,-,N/A,,Unknown,190,2014-05-03 04:35:00
10:55 PM,53.6,21.2,28,30.08,10.0,South,5.8,-,N/A,,Unknown,190,2014-05-03 04:55:00
11:15 PM,53.6,21.2,28,30.08,10.0,SSW,4.6,-,N/A,,Unknown,200,2014-05-03 05:15:00
11:35 PM,53.6,21.2,28,30.08,10.0,SSW,5.8,-,N/A,,Unknown,210,2014-05-03 05:35:00
11:55 PM,51.8,19.4,28,30.08,10.0,SW,8.1,-,N/A,,Unknown,220,2014-05-03 05:55:00